Temp
72 71 68 64 52 48 43 51 54 58 59 62 64 67 64 61 63 57 68 73 75 75 77 78 79 79 79 79 78 78 78 78 78 79 78 78 78 78 78 79 79 79 79 78 78 77 77 77 77
70 73 65 56 47 41 45 52 57 60 66 67 67 65 64 61 68 66 67 74 76 76 77 77 78 79 78 78 78 78 78 78 78 78 78 78 78 78 79 79 78 78 78 77 76 76 76 76 76
71 72 58 51 44 43 46 55 59 63 64 65 64 67 64 63 69 69 72 76 76 75 77 77 78 78 78 78 78 78 77 77 77 77 78 77 79 78 79 78 77 77 77 76 76 76 75 75 75
68 62 57 47 45 52 52 56 63 63 64 69 64 61 66 69 71 72 76 76 74 72 73 77 77 78 78 77 77 77 77 77 77 77 77 78 78 79 78 77 76 75 75 76 76 75 75 75 75
66 58 46 42 47 52 57 62 63 62 62 64 63 58 62 71 73 76 75 77 73 72 74 77 77 78 77 77 77 77 77 77 77 77 77 77 78 77 77 76 75 75 75 75 75 75 75 74 75
55 56 41 41 47 54 58 62 63 62 61 63 62 61 60 68 72 74 76 75 76 73 75 76 76 77 77 77 77 77 77 77 76 77 77 77 76 76 76 75 75 75 75 75 75 75 75 74 74
55 50 44 43 48 53 59 64 61 62 60 61 66 58 61 65 68 72 74 73 74 75 74 73 74 76 76 76 77 76 76 76 76 76 76 75 75 75 75 75 75 75 75 75 75 75 74 74 74
56 55 46 46 48 51 63 62 65 65 61 67 67 58 59 65 69 70 71 72 72 72 72 70 71 72 73 76 75 74 74 74 74 74 73 72 71 72 73 73 74 75 75 74 74 74 74 74 73
60 47 45 49 51 54 58 57 65 69 63 63 63 63 68 69 70 69 67 67 68 71 70 69 69 70 70 71 73 73 72 72 72 71 70 68 66 68 69 69 71 73 73 74 74 74 73 72 71
53 48 49 58 59 53 56 57 59 63 61 58 61 66 69 68 66 65 65 65 65 66 69 71 70 69 69 76 70 69 70 68 67 67 66 64 64 65 68 66 69 72 72 72 73 73 72 69 62
52 48 55 59 62 56 54 55 61 59 58 59 60 62 65 64 64 64 65 66 65 66 68 70 69 69 69 70 67 67 67 66 65 65 65 63 65 62 63 62 64 65 66 66 68 66 64 62 61
49 57 59 61 62 54 53 58 56 61 61 66 64 65 63 63 63 63 64 65 66 67 68 69 70 68 68 69 68 67 67 66 64 65 65 62 61 61 61 62 63 63 64 64 63 62 61 61 61
51 56 60 60 58 56 57 53 54 61 66 63 65 65 62 62 63 65 66 66 66 67 68 68 69 68 68 67 67 66 66 67 67 66 66 65 62 62 62 62 62 62 62 63 62 61 61 60 60
55 57 57 57 58 59 53 53 56 64 65 60 66 63 62 62 64 63 65 66 66 67 69 70 69 68 68 66 66 67 67 67 67 68 68 68 66 65 65 64 63 63 63 63 63 63 62 61 60
56 50 53 56 56 57 59 52 52 66 63 60 57 58 64 66 65 63 66 66 66 68 70 70 71 70 68 69 67 66 69 69 68 68 69 70 67 66 66 65 64 65 64 63 63 62 62 61 63
50 49 41 53 55 58 58 46 57 63 60 59 56 54 56 62 64 64 66 66 66 66 68 70 74 71 69 68 68 68 68 68 70 69 70 71 71 67 67 66 65 66 63 64 62 63 61 60 60
45 37 40 48 55 55 54 46 56 61 56 57 55 57 58 59 61 63 64 61 63 65 66 67 69 70 70 68 68 68 67 67 67 68 69 70 71 70 68 68 67 65 65 64 63 61 61 58 58
37 39 44 45 51 52 50 46 56 55 53 56 55 56 58 59 61 61 62 61 61 61 61 63 66 67 67 67 66 66 66 66 67 67 68 69 69 69 65 64 65 65 63 62 61 62 59 59 61
45 43 42 46 53 51 48 47 53 54 49 52 53 55 58 59 57 59 57 57 58 57 58 58 61 61 62 63 63 63 64 65 64 65 68 67 67 67 64 64 63 62 63 65 62 60 60 59 55
45 41 41 46 53 50 48 47 50 53 52 54 56 54 55 55 56 57 57 56 57 55 56 57 58 59 60 60 60 61 62 64 65 65 65 66 66 66 65 63 63 63 61 61 61 60 58 57 55
40 40 40 42 46 47 44 41 45 50 50 54 56 55 55 57 56 54 53 55 56 55 55 58 58 58 59 60 60 59 60 60 62 62 62 64 65 65 64 64 63 62 61 61 60 59 59 61 54
35 47 47 44 41 35 45 30 40 46 48 49 49 50 53 53 53 55 55 55 55 55 55 57 58 58 60 58 57 57 56 56 57 59 61 61 63 63 64 64 63 63 62 61 61 61 60 58 59
42 47 45 43 39 37 37 31 36 40 42 46 47 48 50 51 52 54 55 57 56 55 53 54 56 57 57 57 56 55 54 54 54 55 55 56 58 60 62 63 63 61 62 62 61 60 58 59 60
48 43 40 39 37 27 35 34 31 37 42 46 46 48 49 50 51 53 54 55 53 53 53 53 54 54 55 55 54 53 52 52 52 52 52 52 53 55 56 58 60 61 61 60 60 60 59 60 60
45 37 26 26 26 24 36 32 39 43 46 47 48 48 50 50 50 51 52 52 52 51 52 54 53 52 53 52 52 51 51 51 51 50 50 51 51 51 52 53 54 56 58 60 60 59 58 58 58
40 36 25 21 21 26 35 29 39 45 47 50 52 52 50 49 49 51 52 51 51 51 51 51 51 50 50 50 50 49 49 49 50 49 49 49 50 51 51 52 52 53 56 57 57 57 57 58 57
39 34 38 28 26 21 29 36 44 43 42 46 47 49 49 49 49 50 50 50 49 49 50 50 50 49 49 48 48 47 47 46 46 46 47 47 48 53 50 50 50 51 52 54 56 56 57 55 55
41 43 31 26 19 21 26 27 34 38 41 46 46 48 48 50 49 49 48 49 49 49 48 48 49 48 48 47 46 45 44 45 44 44 43 44 46 47 48 47 47 47 47 48 49 49 50 52 52
38 37 34 34 27 22 21 28 40 43 47 47 48 48 48 49 49 48 48 48 48 47 46 46 46 46 46 45 44 43 42 42 42 41 41 42 43 44 44 45 44 44 44 43 44 44 45 46 46
41 39 40 30 24 23 23 28 44 45 47 50 50 51 51 51 49 48 48 47 46 45 44 44 45 45 44 44 42 41 41 40 39 39 40 41 40 42 42 43 42 42 42 41 41 41 41 42 42
MSLP
1014.91 1014.83 1014.96 1015.74 1017.35 1017.75 1017.09 1015.49 1013.71 1012.63 1011.79 1011.24 1011.01 1010.76 1011.96 1012.63 1013.02 1013.86 1013.26 1013.76 1014.02 1014.59 1014.97 1015.38 1015.74 1016.11 1016.40 1016.74 1016.91 1016.93 1017.09 1017.27 1017.57 1017.70 1018.06 1018.28 1018.37 1018.41 1018.42 1018.47 1018.49 1018.64 1018.82 1018.99 1019.10 1019.18 1019.26 1019.31 1019.37
1014.88 1014.73 1015.47 1016.61 1017.62 1017.80 1016.61 1014.81 1013.51 1012.27 1011.20 1011.03 1011.00 1011.37 1011.87 1012.85 1012.93 1013.50 1013.80 1014.14 1013.87 1014.47 1015.07 1015.52 1015.89 1016.27 1016.56 1016.89 1016.98 1017.09 1017.21 1017.64 1017.84 1018.06 1018.28 1018.38 1018.46 1018.55 1018.53 1018.58 1018.73 1018.91 1019.15 1019.34 1019.45 1019.54 1019.56 1019.59 1019.64
1014.96 1015.03 1016.49 1017.22 1017.71 1017.28 1016.03 1014.36 1012.99 1011.94 1011.07 1010.69 1011.26 1011.65 1012.27 1012.93 1012.95 1013.19 1013.31 1014.04 1014.29 1014.78 1015.20 1015.66 1016.04 1016.43 1016.70 1016.97 1017.17 1017.19 1017.58 1017.96 1018.14 1018.27 1018.36 1018.36 1018.37 1018.55 1018.69 1018.81 1019.00 1019.24 1019.41 1019.58 1019.70 1019.78 1019.78 1019.80 1019.88
1015.13 1015.95 1017.30 1017.51 1017.63 1016.31 1015.21 1014.05 1012.89 1012.11 1011.18 1010.81 1011.45 1012.61 1012.84 1012.92 1012.64 1012.85 1013.67 1014.03 1014.66 1015.11 1015.44 1015.63 1016.07 1016.53 1016.87 1017.13 1017.30 1017.52 1017.79 1018.09 1018.33 1018.44 1018.46 1018.33 1018.39 1018.46 1018.74 1019.08 1019.32 1019.48 1019.63 1019.75 1019.85 1019.92 1019.94 1019.94 1019.98
1015.13 1016.66 1017.87 1018.00 1017.21 1016.26 1015.05 1013.87 1012.95 1012.10 1011.44 1011.34 1011.57 1013.01 1013.43 1013.29 1013.04 1013.18 1013.92 1014.31 1014.72 1015.38 1015.61 1015.82 1016.21 1016.60 1016.94 1017.22 1017.49 1017.71 1017.95 1018.23 1018.45 1018.65 1018.59 1018.53 1018.66 1018.81 1019.02 1019.34 1019.52 1019.69 1019.80 1019.88 1019.96 1020.02 1020.04 1020.06 1020.04
1015.93 1017.17 1018.38 1018.26 1017.09 1016.20 1015.04 1013.98 1013.22 1012.18 1011.82 1011.88 1012.49 1013.13 1014.06 1013.96 1013.75 1013.84 1014.13 1014.49 1014.50 1015.34 1015.72 1015.97 1016.36 1016.67 1016.96 1017.18 1017.51 1017.75 1018.01 1018.26 1018.53 1018.79 1018.89 1018.90 1019.11 1019.18 1019.32 1019.53 1019.72 1019.81 1019.94 1020.01 1020.10 1020.14 1020.18 1020.18 1020.14
1015.70 1017.37 1018.04 1018.09 1017.21 1016.29 1015.03 1014.16 1013.25 1012.22 1011.92 1011.99 1012.32 1013.78 1014.41 1014.17 1014.35 1014.03 1014.31 1014.75 1015.05 1015.33 1015.82 1016.20 1016.46 1016.67 1016.95 1017.14 1017.39 1017.73 1018.10 1018.27 1018.58 1018.88 1019.01 1019.19 1019.41 1019.53 1019.61 1019.69 1019.78 1019.85 1019.98 1020.07 1020.13 1020.20 1020.28 1020.33 1020.33
1016.17 1016.87 1017.72 1017.73 1017.12 1016.42 1015.25 1014.50 1013.73 1012.33 1011.96 1011.70 1012.21 1013.65 1014.55 1014.43 1014.37 1014.49 1014.84 1015.24 1015.58 1015.78 1016.08 1016.43 1016.63 1016.74 1016.97 1017.19 1017.40 1017.74 1018.12 1018.37 1018.55 1018.89 1019.07 1019.23 1019.47 1019.62 1019.77 1019.91 1020.00 1020.08 1020.23 1020.30 1020.32 1020.35 1020.36 1020.37 1020.35
1016.29 1016.86 1016.84 1016.67 1016.76 1016.72 1015.89 1015.67 1013.84 1012.83 1012.25 1012.36 1012.87 1013.18 1013.45 1014.23 1014.56 1014.95 1015.43 1015.94 1016.15 1016.33 1016.37 1016.46 1016.68 1016.88 1017.10 1017.32 1017.58 1017.86 1018.08 1018.37 1018.61 1018.90 1019.18 1019.38 1019.62 1019.71 1019.83 1020.04 1020.18 1020.26 1020.41 1020.51 1020.58 1020.55 1020.53 1020.57 1020.51
1016.14 1016.08 1015.57 1015.44 1015.55 1016.82 1016.71 1016.18 1015.96 1014.41 1013.38 1013.49 1013.63 1013.74 1013.90 1014.42 1014.96 1015.50 1015.91 1016.22 1016.48 1016.65 1016.58 1016.46 1016.60 1016.82 1017.08 1017.22 1017.65 1017.96 1018.19 1018.46 1018.77 1019.05 1019.34 1019.57 1019.78 1019.92 1019.92 1019.98 1020.09 1020.26 1020.48 1020.62 1020.65 1020.62 1020.75 1020.89 1020.98
1015.98 1014.82 1015.43 1015.46 1015.92 1016.78 1017.16 1016.31 1016.20 1015.54 1014.70 1013.81 1013.89 1014.35 1014.41 1014.77 1015.26 1015.72 1015.98 1016.04 1016.17 1016.41 1016.56 1016.60 1016.54 1016.74 1017.02 1017.22 1017.63 1018.00 1018.22 1018.51 1018.79 1019.05 1019.34 1019.59 1019.80 1020.00 1020.12 1020.25 1020.29 1020.37 1020.38 1020.59 1020.68 1020.78 1020.90 1021.01 1021.10
1015.31 1015.12 1015.17 1015.34 1016.16 1017.70 1017.87 1017.31 1016.66 1015.69 1014.70 1013.65 1013.64 1013.98 1014.61 1014.95 1015.27 1015.54 1015.78 1015.94 1016.18 1016.26 1016.34 1016.45 1016.57 1016.83 1016.98 1017.12 1017.47 1017.79 1018.13 1018.42 1018.71 1018.87 1019.18 1019.55 1019.76 1019.95 1020.12 1020.26 1020.25 1020.32 1020.38 1020.59 1020.63 1020.83 1020.90 1020.99 1021.04
1015.17 1014.83 1015.20 1015.40 1016.70 1017.14 1018.28 1018.38 1017.34 1015.91 1014.66 1013.91 1014.02 1014.37 1014.74 1015.07 1015.08 1015.25 1015.33 1015.68 1015.83 1016.11 1016.16 1016.26 1016.37 1016.72 1016.93 1017.19 1017.35 1017.74 1017.97 1018.21 1018.37 1018.67 1018.88 1019.16 1019.47 1019.70 1019.88 1020.02 1020.14 1020.10 1020.22 1020.34 1020.56 1020.75 1020.74 1020.83 1020.88
1014.81 1015.16 1015.30 1016.03 1016.79 1017.06 1018.15 1018.47 1018.21 1015.76 1014.95 1014.46 1014.19 1014.44 1014.76 1014.97 1015.02 1015.33 1015.52 1015.52 1015.70 1015.56 1015.71 1015.94 1016.22 1016.24 1016.55 1017.00 1017.25 1017.42 1017.65 1017.78 1018.13 1018.27 1018.34 1018.64 1018.93 1019.23 1019.40 1019.59 1019.80 1019.86 1019.88 1020.00 1020.14 1020.32 1020.41 1020.48 1020.62
1014.75 1015.32 1015.94 1016.14 1016.18 1016.30 1016.86 1017.73 1017.57 1015.81 1015.37 1014.74 1014.56 1014.39 1014.44 1014.66 1014.80 1015.02 1015.05 1015.32 1015.19 1015.17 1015.25 1015.44 1015.61 1015.71 1016.20 1016.51 1016.83 1017.21 1017.17 1017.32 1017.60 1017.80 1017.90 1018.11 1018.40 1018.67 1018.87 1019.03 1019.32 1019.29 1019.36 1019.56 1019.83 1019.95 1020.03 1020.27 1020.26
1015.20 1015.70 1016.10 1015.72 1015.82 1015.70 1015.84 1016.27 1015.89 1015.96 1015.82 1015.20 1014.91 1014.85 1014.85 1014.71 1014.64 1014.82 1014.78 1014.88 1015.11 1015.21 1015.25 1015.06 1015.39 1015.66 1015.96 1016.16 1016.22 1016.57 1016.85 1016.96 1017.06 1017.25 1017.42 1017.49 1017.59 1017.97 1018.30 1018.49 1018.66 1018.68 1018.97 1019.18 1019.50 1019.71 1019.86 1020.01 1020.14
1015.58 1015.77 1015.67 1015.58 1015.30 1015.28 1015.47 1015.49 1015.21 1014.79 1015.14 1015.11 1014.98 1015.04 1015.18 1015.09 1014.90 1014.75 1014.72 1015.08 1014.97 1014.98 1015.20 1015.34 1015.30 1015.43 1015.64 1015.82 1016.06 1016.18 1016.29 1016.60 1016.57 1016.66 1016.80 1016.93 1016.96 1017.18 1017.50 1017.71 1017.79 1018.14 1018.42 1018.67 1019.01 1019.31 1019.52 1019.72 1019.79
1014.90 1015.17 1015.28 1014.93 1015.01 1015.18 1015.27 1015.16 1014.63 1014.67 1014.88 1014.91 1014.89 1015.01 1015.11 1015.05 1014.88 1014.80 1014.86 1015.09 1015.42 1015.38 1015.29 1015.41 1015.56 1015.65 1015.73 1015.83 1016.06 1016.17 1016.29 1016.30 1016.30 1016.23 1016.31 1016.42 1016.53 1016.69 1017.10 1017.24 1017.36 1017.65 1018.02 1018.21 1018.47 1018.68 1019.03 1019.26 1019.18
1014.69 1015.12 1015.41 1015.15 1014.85 1015.19 1015.41 1015.54 1015.03 1014.59 1014.86 1015.04 1015.03 1015.07 1015.07 1015.09 1015.21 1015.23 1015.56 1015.60 1015.71 1016.01 1016.10 1015.99 1016.02 1016.02 1015.96 1016.10 1016.31 1016.35 1016.37 1016.21 1016.13 1016.03 1016.02 1016.23 1016.35 1016.53 1016.83 1017.16 1017.36 1017.56 1017.82 1017.79 1017.95 1018.22 1018.62 1018.93 1019.22
1015.02 1015.38 1015.48 1015.17 1014.99 1015.55 1015.76 1015.70 1015.35 1014.95 1014.90 1014.93 1014.80 1014.96 1015.08 1015.43 1015.70 1015.90 1016.08 1016.08 1016.11 1016.32 1016.32 1016.44 1016.64 1016.54 1016.28 1016.17 1016.18 1016.23 1016.28 1016.15 1016.01 1015.85 1015.96 1016.12 1016.27 1016.36 1016.51 1016.70 1016.91 1017.10 1017.37 1017.57 1017.67 1017.90 1018.29 1018.46 1018.74
1015.55 1015.56 1015.72 1015.65 1015.69 1015.92 1016.19 1016.20 1015.78 1015.10 1014.98 1014.68 1014.71 1014.76 1015.10 1015.53 1015.95 1016.38 1016.46 1016.46 1016.49 1016.64 1016.66 1016.59 1016.48 1016.43 1016.52 1016.57 1016.54 1016.51 1016.40 1016.33 1016.21 1016.08 1015.98 1015.82 1015.85 1015.96 1016.09 1016.10 1016.31 1016.63 1016.85 1016.97 1017.23 1017.51 1017.68 1017.88 1018.35
1015.83 1015.41 1015.63 1016.09 1016.52 1016.64 1016.78 1016.62 1015.69 1015.15 1015.11 1014.99 1014.81 1015.07 1015.22 1015.59 1016.05 1016.41 1016.50 1016.53 1016.60 1016.77 1016.78 1016.68 1016.63 1016.57 1016.54 1016.47 1016.56 1016.70 1016.74 1016.87 1016.63 1016.47 1016.30 1016.02 1015.74 1015.67 1015.62 1015.72 1015.87 1016.07 1016.23 1016.46 1016.46 1016.63 1016.99 1017.50 1017.81
1015.84 1015.47 1015.86 1016.40 1017.07 1017.46 1017.64 1017.87 1015.66 1015.37 1015.23 1015.04 1015.01 1015.22 1015.46 1015.79 1016.00 1016.42 1016.54 1016.59 1016.73 1016.89 1017.02 1016.98 1016.87 1016.88 1016.80 1016.64 1016.61 1016.74 1016.92 1017.02 1016.78 1016.70 1016.61 1016.37 1016.02 1015.72 1015.55 1015.41 1015.37 1015.73 1015.78 1015.81 1015.94 1016.19 1016.49 1016.71 1017.04
1015.84 1016.08 1016.83 1017.51 1018.19 1018.50 1017.90 1017.91 1016.14 1015.27 1014.50 1014.41 1014.77 1015.24 1015.39 1015.91 1016.23 1016.46 1016.64 1016.76 1017.02 1017.08 1017.09 1017.15 1017.18 1017.33 1017.22 1017.11 1017.04 1017.02 1017.12 1017.12 1017.08 1016.99 1016.82 1016.65 1016.37 1016.22 1016.07 1015.62 1015.28 1015.10 1015.35 1015.30 1015.35 1015.53 1015.81 1015.98 1016.19
1016.31 1016.91 1018.53 1019.13 1019.45 1018.95 1018.30 1018.25 1015.34 1014.22 1013.91 1014.08 1014.46 1014.98 1015.39 1015.72 1016.16 1016.58 1016.83 1016.99 1017.19 1017.31 1017.37 1017.47 1017.59 1017.75 1017.67 1017.58 1017.52 1017.45 1017.41 1017.41 1017.47 1017.39 1017.30 1017.09 1016.84 1016.71 1016.58 1016.21 1015.80 1015.45 1015.07 1014.89 1014.93 1015.19 1015.42 1015.59 1015.83
1016.97 1017.66 1018.57 1019.26 1019.79 1019.43 1018.70 1017.04 1014.65 1013.67 1013.23 1013.32 1013.72 1014.41 1015.07 1015.75 1016.09 1016.46 1016.70 1017.01 1017.31 1017.53 1017.74 1017.83 1017.97 1018.11 1018.09 1018.03 1018.07 1017.95 1017.82 1017.81 1017.82 1017.81 1017.67 1017.56 1017.38 1017.15 1016.83 1016.46 1015.99 1015.56 1015.07 1014.98 1014.95 1015.11 1015.26 1015.42 1015.54
1017.69 1017.99 1018.10 1019.18 1019.98 1019.81 1018.00 1016.05 1014.13 1013.51 1013.22 1013.36 1013.87 1014.51 1015.09 1015.66 1016.11 1016.51 1016.83 1017.14 1017.53 1017.80 1018.00 1018.11 1018.27 1018.40 1018.47 1018.49 1018.45 1018.49 1018.44 1018.42 1018.48 1018.33 1018.12 1017.97 1017.75 1017.40 1017.08 1016.72 1016.47 1016.16 1015.79 1015.53 1015.28 1015.25 1015.38 1015.52 1015.64
1017.57 1017.71 1018.34 1019.28 1019.99 1019.66 1017.79 1016.38 1014.37 1013.69 1013.40 1013.57 1014.09 1014.55 1015.08 1015.62 1016.21 1016.67 1016.98 1017.26 1017.62 1017.89 1018.16 1018.30 1018.47 1018.63 1018.76 1018.80 1018.86 1019.07 1019.08 1019.00 1018.89 1018.76 1018.65 1018.49 1018.19 1017.86 1017.52 1017.21 1016.92 1016.75 1016.48 1016.32 1016.08 1016.04 1016.09 1016.02 1016.06
1017.42 1017.40 1017.86 1018.42 1019.11 1019.07 1018.31 1015.79 1013.75 1013.15 1012.95 1013.21 1013.82 1014.44 1015.01 1015.62 1016.16 1016.71 1017.11 1017.46 1017.76 1018.13 1018.43 1018.61 1018.73 1018.89 1019.13 1019.20 1019.30 1019.36 1019.44 1019.39 1019.30 1019.22 1019.10 1018.88 1018.56 1018.23 1017.98 1017.82 1017.61 1017.25 1017.04 1016.88 1016.75 1016.86 1016.63 1016.52 1016.61
1016.93 1017.00 1017.25 1017.89 1018.79 1018.96 1018.28 1015.47 1013.62 1012.95 1013.01 1013.15 1013.61 1014.12 1014.72 1015.31 1016.07 1016.74 1017.11 1017.56 1018.03 1018.42 1018.68 1018.86 1019.02 1019.16 1019.38 1019.50 1019.61 1019.74 1019.78 1019.77 1019.76 1019.71 1019.45 1019.20 1018.94 1018.79 1018.57 1018.28 1018.06 1017.86 1017.78 1017.59 1017.58 1017.60 1017.42 1017.46 1017.50
Wind_Speed
3 4 3 5 4 5 3 7 2 2 2 3 1 9 9 3 2 4 2 9 16 14 13 13 16 15 15 14 14 12 14 14 12 14 12 9 9 8 10 9 12 15 14 13 12 11 11 10 10
2 3 5 2 5 2 5 5 6 5 7 7 5 4 6 3 3 6 5 11 16 14 12 11 16 15 15 15 13 14 16 13 12 11 9 9 8 10 10 10 15 15 14 13 12 11 10 9 9
2 4 4 4 3 5 4 3 6 4 3 3 4 6 4 1 2 8 10 15 14 12 11 11 17 16 16 15 13 16 16 13 11 11 10 7 12 12 12 12 15 14 13 13 12 11 10 9 8
3 5 4 4 6 7 3 5 5 4 0 5 5 7 3 2 4 8 14 15 12 8 7 13 19 17 15 14 14 16 17 14 11 10 10 12 13 13 14 15 14 13 12 13 12 11 9 8 6
3 4 3 1 7 4 7 7 5 3 1 3 3 2 4 6 7 18 14 13 14 9 8 11 17 16 15 15 15 16 16 15 12 9 10 12 12 13 14 14 14 13 12 13 12 10 9 7 5
5 4 3 3 9 4 8 7 5 3 1 4 7 5 1 5 6 11 12 12 14 13 10 10 13 14 15 16 17 17 16 15 13 12 9 12 12 13 13 13 12 12 12 12 11 10 8 6 4
9 6 6 1 5 6 4 8 5 5 4 3 9 6 1 2 6 5 12 10 11 11 10 8 8 9 12 12 14 17 15 15 14 11 11 11 11 9 10 10 11 11 12 12 11 9 8 5 3
4 6 8 5 6 6 5 12 7 4 3 2 5 6 5 3 5 8 8 10 9 9 8 7 6 6 6 7 11 13 12 12 15 12 10 10 10 9 7 7 7 8 9 10 9 9 8 6 4
2 5 13 11 11 3 10 10 7 8 3 4 4 4 8 9 8 11 8 5 5 6 7 7 7 6 6 6 8 10 11 12 11 10 10 7 4 6 7 6 6 7 7 8 8 7 6 5 5
7 10 15 15 16 4 7 7 13 8 6 7 6 6 7 6 6 9 9 8 6 6 7 9 8 7 6 6 6 6 6 5 5 5 6 4 5 4 5 5 8 8 7 7 8 7 5 3 2
7 16 6 13 5 7 5 15 10 9 4 4 10 7 5 7 7 7 6 8 7 6 5 7 7 6 7 5 4 3 3 3 3 6 5 5 4 3 3 2 2 3 6 3 4 3 2 3 3
6 7 15 5 6 5 4 14 15 9 5 7 10 12 6 8 8 7 7 7 8 7 7 7 6 5 6 4 5 5 4 4 3 5 6 4 3 4 4 3 4 4 3 4 4 3 4 5 5
2 12 15 9 7 11 6 14 19 19 8 2 10 6 9 7 7 5 6 6 6 7 7 7 7 7 6 5 4 4 5 5 5 5 6 5 4 5 4 4 4 4 4 4 4 4 4 5 6
8 2 7 8 8 15 17 15 17 9 7 2 10 9 7 7 9 5 6 7 7 7 7 8 8 7 8 6 6 6 5 6 5 6 7 8 6 6 7 6 6 5 5 5 5 6 5 5 5
4 9 4 12 7 7 16 17 19 11 6 3 2 4 5 7 5 8 9 8 9 7 6 8 8 8 7 9 7 5 6 5 6 7 9 10 8 8 8 7 7 7 6 6 5 5 4 4 4
5 6 5 5 8 6 9 11 16 9 8 7 3 1 4 6 4 5 7 8 8 6 8 7 5 7 7 6 5 5 5 6 7 6 7 12 11 9 8 7 7 7 5 6 5 6 5 5 5
3 7 7 8 11 6 8 4 7 4 6 9 6 6 5 6 7 7 6 3 4 6 5 7 7 7 7 6 5 5 6 5 5 5 6 10 11 10 9 8 7 7 6 6 6 5 5 4 5
13 12 11 12 9 6 8 6 5 4 4 9 8 7 6 4 9 6 4 6 7 6 7 6 3 1 4 2 0 2 3 4 4 5 5 7 6 7 5 4 6 6 5 5 4 6 4 4 5
9 7 10 4 5 5 7 4 10 6 2 5 8 7 6 4 2 5 5 5 7 7 8 7 6 5 3 1 2 2 4 3 4 4 5 5 4 4 5 4 4 4 5 8 6 4 6 6 2
10 6 6 1 5 5 6 13 9 9 6 7 7 7 7 4 5 4 5 6 7 5 6 6 6 3 3 2 0 1 1 3 3 1 3 3 5 5 3 5 6 6 5 6 7 6 3 3 5
1 6 4 4 1 1 4 6 6 8 4 6 6 5 5 8 8 5 5 5 5 6 5 5 5 5 2 1 1 1 2 2 2 2 3 4 5 5 6 6 5 5 5 6 5 5 7 9 4
1 6 7 6 6 7 3 6 7 7 10 8 8 7 7 6 6 5 5 4 5 4 4 5 5 6 5 4 3 2 2 2 2 2 2 4 5 6 6 6 6 8 5 7 8 6 7 4 8
6 5 7 4 6 5 2 0 7 1 9 9 9 8 7 8 9 8 7 6 5 4 4 5 6 6 6 6 5 3 2 1 2 1 3 4 6 5 6 6 6 6 6 7 6 5 7 6 8
1 6 8 6 4 1 5 6 6 6 8 7 5 7 9 9 8 7 5 6 5 4 5 6 6 6 6 6 6 6 4 3 3 3 4 3 3 4 6 6 4 5 5 6 5 6 6 7 7
4 6 3 1 1 5 2 4 13 6 6 7 10 10 9 9 8 8 7 6 5 5 5 4 6 5 6 6 6 6 6 6 5 3 3 5 4 3 5 6 6 4 5 5 4 4 5 5 4
4 2 6 6 4 4 4 9 9 6 7 8 10 11 8 8 7 7 7 6 6 5 4 6 6 5 6 6 6 6 6 4 4 5 4 3 3 3 5 5 6 7 7 4 2 1 2 3 3
5 5 3 5 1 3 5 7 8 1 2 7 9 9 8 7 7 8 6 6 6 5 5 6 6 5 6 6 5 6 6 6 5 6 4 4 4 4 5 5 6 7 8 8 7 3 3 4 4
3 3 2 3 3 4 5 5 7 4 7 8 9 10 8 6 7 6 6 6 5 5 5 6 6 6 4 5 5 5 5 5 5 5 6 6 5 6 5 6 6 6 6 7 7 5 5 5 4
4 3 2 4 4 4 2 7 5 8 8 12 10 9 8 8 7 7 6 5 6 6 5 5 5 6 5 5 5 6 5 6 5 5 5 5 5 6 6 6 6 6 7 7 6 6 6 6 6
1 5 5 4 5 1 4 8 3 7 8 9 10 8 7 7 7 7 6 6 6 6 5 5 5 5 5 5 5 5 5 5 5 5 5 6 6 5 6 6 6 6 6 7 7 7 7 8 8
Wind_Direction
326 319 80 44 69 72 247 256 257 246 114 223 234 109 118 83 141 204 330 144 132 141 147 148 148 147 138 137 142 139 120 101 104 100 100 113 121 127 124 128 132 115 109 105 103 104 104 103 102
310 50 47 85 99 120 255 261 265 237 194 162 109 89 58 80 127 122 85 148 138 139 143 146 146 143 139 142 136 119 100 102 102 110 120 125 130 137 129 135 128 115 112 108 107 106 105 105 105
230 62 84 109 149 193 204 259 237 267 254 128 97 61 99 81 74 148 139 143 134 135 142 153 146 142 144 141 130 111 109 112 118 125 128 152 139 134 132 128 122 118 116 117 117 114 109 106 107
159 23 28 100 234 259 226 305 313 250 232 52 110 62 33 306 179 130 141 136 130 125 132 153 143 145 146 143 133 125 124 123 126 134 139 116 117 134 130 123 120 120 125 126 124 121 118 115 112
48 77 51 251 258 273 303 288 279 264 134 59 100 104 56 3 78 131 131 140 136 132 137 140 141 151 153 151 144 136 133 132 133 143 142 122 122 116 121 128 126 132 133 133 134 136 132 128 121
78 90 97 228 264 315 295 298 291 224 100 156 77 92 23 321 82 144 137 146 143 143 146 146 154 160 167 164 154 146 144 140 140 149 151 139 137 138 140 138 140 142 143 145 148 147 146 147 141
149 152 168 274 279 301 295 333 251 192 147 73 145 95 228 14 53 127 135 135 137 140 140 147 158 170 158 155 155 149 152 148 144 155 158 144 142 146 148 150 153 154 155 159 159 157 161 167 173
93 177 156 197 237 275 5 332 314 227 169 114 137 149 186 158 87 102 113 128 132 136 139 140 143 149 158 159 152 157 152 156 150 157 152 140 155 156 159 162 170 164 166 168 167 168 172 182 199
30 140 208 210 221 210 353 351 313 305 88 70 19 129 137 130 112 101 104 96 108 132 152 152 155 162 164 158 159 153 151 154 155 155 159 150 154 165 171 173 188 171 176 179 184 183 184 198 221
157 195 213 216 205 118 330 329 331 344 342 29 59 27 104 100 105 116 145 145 149 161 178 171 171 174 167 165 155 154 157 156 152 151 162 162 174 186 183 183 185 186 188 196 197 194 191 192 288
191 206 148 218 219 39 0 317 327 312 298 228 159 163 138 127 136 133 141 155 166 178 184 187 182 173 170 162 149 152 152 152 161 168 175 179 175 193 193 193 203 198 198 199 203 200 197 213 223
157 198 199 127 125 135 301 323 300 299 259 237 180 157 141 148 153 172 178 188 158 160 175 188 195 177 187 153 169 170 165 170 177 188 186 169 181 191 199 197 195 192 194 205 201 201 213 223 231
128 173 201 143 151 175 123 271 279 297 282 306 113 135 155 170 176 190 189 183 188 176 170 175 177 183 187 178 174 169 188 185 190 187 194 180 187 192 185 204 203 202 192 197 203 212 218 221 230
163 155 127 112 192 185 168 219 254 279 261 109 129 140 160 184 188 172 188 214 196 199 193 175 181 174 165 178 191 189 186 192 176 198 208 197 192 197 196 196 210 211 200 204 203 209 215 224 208
160 172 86 182 187 190 174 191 227 227 297 170 123 157 167 163 155 183 193 190 201 214 200 197 191 176 169 177 187 191 199 189 192 199 210 210 194 198 198 200 208 213 203 202 211 223 214 229 227
120 116 144 199 172 207 156 222 210 195 239 228 211 229 281 281 280 198 194 203 198 186 211 221 187 180 185 189 188 190 193 199 211 207 201 211 211 191 202 203 211 210 198 204 198 216 219 222 213
217 160 178 178 198 155 174 205 224 213 187 243 224 235 226 273 288 273 244 159 185 174 192 215 213 205 193 200 207 214 212 197 202 206 202 210 207 204 199 208 212 197 207 207 204 216 203 212 217
186 179 180 185 187 180 183 222 251 228 195 220 226 240 257 278 271 270 141 122 102 82 75 84 79 332 250 270 292 263 231 237 232 212 207 211 212 211 207 215 217 195 199 210 196 210 196 209 212
124 120 180 210 174 147 207 207 250 255 287 268 239 223 241 266 28 80 71 85 98 74 80 52 63 18 50 144 194 229 236 244 232 227 244 234 229 204 228 244 256 231 218 229 216 196 205 232 172
155 134 184 26 230 171 182 228 234 246 231 217 225 221 218 166 128 107 97 77 69 73 54 70 84 48 12 20 39 165 199 253 262 255 255 242 227 226 213 211 227 218 217 227 223 195 204 243 173
74 179 165 153 77 83 110 286 221 252 244 260 238 209 180 177 163 149 128 113 102 78 61 53 31 34 78 109 151 353 356 6 353 320 290 271 256 242 223 220 216 228 211 222 229 230 208 237 192
132 198 174 179 148 200 166 265 251 207 230 225 215 186 186 173 146 148 142 115 100 86 67 51 34 26 21 19 74 119 164 201 243 281 314 313 299 275 265 246 222 222 215 218 221 211 212 229 246
219 171 159 136 131 130 215 69 268 195 232 231 216 199 175 163 150 158 156 142 111 91 71 50 44 37 14 24 35 58 51 247 278 295 320 312 311 309 289 255 245 229 223 226 212 203 202 202 235
134 82 45 53 73 262 198 169 269 208 202 202 168 192 167 161 163 158 142 133 114 81 68 56 45 34 32 40 35 41 40 7 28 359 5 352 332 11 8 350 292 251 237 221 210 214 210 209 216
70 85 38 73 218 221 164 172 242 247 240 197 177 179 173 163 156 156 144 139 120 93 71 70 59 45 33 44 42 39 51 60 64 33 28 19 5 8 354 356 359 342 300 270 244 228 229 224 205
155 167 152 186 203 228 182 229 244 239 260 202 176 168 157 155 163 163 162 151 138 122 101 85 82 63 41 42 45 36 37 43 42 41 42 36 15 2 357 356 353 352 352 343 333 296 293 305 282
154 224 176 109 37 69 221 284 308 57 135 152 154 150 161 166 168 171 160 151 146 139 128 120 105 79 55 50 56 41 37 41 36 27 25 17 2 4 13 12 13 8 14 9 6 14 12 358 330
242 190 121 356 143 239 266 271 241 229 191 162 160 163 167 164 160 157 153 153 155 142 128 108 99 85 66 65 57 60 46 40 34 32 24 13 4 3 9 14 21 21 21 11 17 19 11 12 5
164 199 157 129 151 182 296 260 224 223 185 166 161 168 175 175 167 163 159 151 147 129 125 117 102 91 70 71 64 57 43 37 36 34 18 9 7 9 16 15 18 27 25 20 29 20 18 34 32
240 215 177 141 244 209 148 275 314 247 171 160 166 177 179 169 164 164 157 147 142 138 132 121 107 95 91 88 73 63 54 42 39 27 17 13 18 11 16 25 27 29 27 26 31 36 36 40 38